Weather History for Page, AZ

Change the Weather History Date:

Saturday, September 15, 2012

  Actual Average Record
Temperature  
Mean Temperature 74 °F -  
Max Temperature 88 °F 85 °F 97 °F (1971)
Min Temperature 61 °F 57 °F 50 °F (1966)
Cooling Degree Days 10    
Growing Degree Days 24 (Base 50)    
Moisture  
Dew Point 33 °F    
Average Humidity 23    
Maximum Humidity 41    
Minimum Humidity 4    
Precipitation  
Precipitation 0.00 in - - ()
Sea Level Pressure  
Sea Level Pressure 30.06 in    
Wind  
Wind Speed 3 mph (SSW)    
Max Wind Speed 7 mph    
Max Gust Speed -    
Visibility 10 miles    
Events      
Averages and records for this station are not official NWS values.
T = Trace of Precipitation, MM = Missing Value Source: NWS Daily Summary

Daily Weather History Graph

Daily Weather History Graph

Search for Another Location

Airport:

Trip Planner

Search our weather history database for the weather conditions in past years. The results will help you decide how hot, cold, wet, or windy it might be!

Date:

Astronomy

Sep. 15, 2012 Rise Set
Actual Time 6:08 AM MST 6:32 PM MST
Civil Twilight 5:42 AM MST 6:58 PM MST
Nautical Twilight 5:11 AM MST 7:28 PM MST
Astronomical Twilight 4:40 AM MST 7:59 PM MST
Moon 5:42 AM MST (9/15) 6:06 PM MST (9/15)
Length of Visible Light 13h 16m
Length of Day
12h 24m
Waning Crescent, 0% of the Moon is Illuminated
Sep 15
Waning Crescent
Sep 15
New
Sep 22
First Quarter
Sep 29
Full
Oct 8
Last Quarter

Hourly Weather History & Observations

Time (MST) Temp. Dew Point Humidity Pressure Visibility Wind Dir Wind Speed Gust Speed Precip Events Conditions
12:53 AM 64.9 °F 39.9 °F 40% 30.11 in 10.0 mi Calm Calm - N/A   Clear
1:53 AM 64.0 °F 39.9 °F 41% 30.12 in 10.0 mi SSE 3.5 mph - N/A   Clear
2:53 AM 64.9 °F 39.0 °F 39% 30.12 in 10.0 mi SW 4.6 mph - N/A   Clear
3:53 AM 66.9 °F 39.0 °F 36% 30.12 in 10.0 mi SSW 6.9 mph - N/A   Clear
4:53 AM 64.9 °F 36.0 °F 34% 30.12 in 10.0 mi SSW 6.9 mph - N/A   Clear
5:53 AM 63.0 °F 37.0 °F 38% 30.13 in 10.0 mi SSW 3.5 mph - N/A   Clear
6:53 AM 64.0 °F 37.0 °F 37% 30.15 in 10.0 mi Calm Calm - N/A   Clear
7:53 AM 66.9 °F 37.9 °F 34% 30.16 in 10.0 mi Calm Calm - N/A   Clear
8:53 AM 69.1 °F 37.9 °F 32% 30.16 in 10.0 mi Calm Calm - N/A   Clear
9:53 AM 72.0 °F 36.0 °F 27% 30.16 in 10.0 mi WSW 4.6 mph - N/A   Clear
10:53 AM 75.9 °F 36.0 °F 23% 30.13 in 10.0 mi Calm Calm - N/A   Clear
11:53 AM 80.1 °F 35.1 °F 20% 30.10 in 10.0 mi Calm Calm - N/A   Clear
12:53 PM 82.0 °F 36.0 °F 19% 30.08 in 10.0 mi East 5.8 mph - N/A   Clear
1:53 PM 84.9 °F 35.1 °F 17% 30.04 in 10.0 mi Variable 3.5 mph - N/A   Clear
2:53 PM 88.0 °F 32.0 °F 14% 30.01 in 10.0 mi Variable 3.5 mph - N/A   Clear
3:53 PM 88.0 °F 23.0 °F 9% 29.97 in 10.0 mi Calm Calm - N/A   Clear
4:53 PM 88.0 °F 21.9 °F 9% 29.96 in 10.0 mi SE 4.6 mph - N/A   Clear
5:53 PM 86.0 °F 25.0 °F 11% 29.95 in 10.0 mi Calm Calm - N/A   Clear
6:53 PM 81.0 °F 28.9 °F 15% 29.95 in 10.0 mi South 4.6 mph - N/A   Clear
7:53 PM 78.1 °F 32.0 °F 19% 29.97 in 10.0 mi West 3.5 mph - N/A   Clear
8:53 PM 73.9 °F 30.9 °F 21% 29.99 in 10.0 mi South 3.5 mph - N/A   Clear
9:53 PM 72.0 °F 32.0 °F 23% 30.00 in 10.0 mi Calm Calm - N/A   Clear
10:53 PM 72.0 °F 30.0 °F 21% 29.99 in 10.0 mi SSW 4.6 mph - N/A   Clear
11:53 PM 72.0 °F 28.0 °F 20% 29.98 in 10.0 mi SSW 4.6 mph - N/A   Clear